FW6113 Weather Reports


Display with metric or nautical units.
time (UTC)temp
F
wind
direction
speed
MPH
gust
MPH
rain 1hr
in
rain 24hr
in
rain mn
in
humidity
%
barometer
mb
20260505173257 77 197 6.0 12.0 0.00 0.00 0.00 41 1017.4
20260505172757 77 302 6.0 13.0 0.00 0.00 0.00 41 1017.4
20260505172257 76 194 6.0 16.0 0.00 0.00 0.00 41 1017.3
20260505171757 77 205 6.0 16.0 0.00 0.00 0.00 40 1017.4
20260505171257 76 244 5.0 12.0 0.00 0.00 0.00 41 1017.2
20260505171240 76 303 5.0 12.0 0.00 0.00 0.00 41 1017.1
20260505170509 76 246 4.0 14.0 0.00 0.00 0.00 44 1016.9
20260505170350 77 315 5.0 14.0 0.00 0.00 0.00 42 1016.9
20260505165253 76 234 4.0 11.0 0.00 0.00 0.00 46 1017.1
20260505164752 76 269 4.0 11.0 0.00 0.00 0.00 43 1017.3
20260505164511 76 114 4.0 12.0 0.00 0.00 0.00 46 1017.5
20260505163753 76 250 4.0 12.0 0.00 0.00 0.00 46 1017.6
20260505163253 75 129 4.0 11.0 0.00 0.00 0.00 47 1017.5
20260505162751 74 167 4.0 11.0 0.00 0.00 0.00 47 1017.5
20260505162245 75 242 6.0 11.0 0.00 0.00 0.00 46 1017.5
20260505161745 75 88 5.0 11.0 0.00 0.00 0.00 46 1017.4
20260505161244 75 205 4.0 10.0 0.00 0.00 0.00 45 1017.4
20260505161008 74 324 4.0 9.0 0.00 0.00 0.00 50 1017.5
20260505160244 74 245 4.0 10.0 0.00 0.00 0.00 50 1017.7
20260505153240 73 257 4.0 8.0 0.00 0.00 0.00 50 1017.6
20260505152738 73 276 4.0 12.0 0.00 0.00 0.00 50 1017.7
20260505152239 73 277 3.0 12.0 0.00 0.00 0.00 52 1017.8
20260505151738 73 147 2.0 7.0 0.00 0.00 0.00 54 1017.9
20260505151238 73 212 2.0 6.0 0.00 0.00 0.00 54 1017.9
20260505150738 72 217 2.0 6.0 0.00 0.00 0.00 57 1017.9
20260505150239 71 200 2.0 6.0 0.00 0.00 0.00 57 1017.9
20260505140228 66 242 3.0 7.0 0.00 0.00 0.00 64 1017.5
20260505130219 61 212 3.0 8.0 0.00 0.00 0.00 72 1017.3
20260505124720 60 261 3.0 7.0 0.00 0.00 0.00 75 1017.2
20260505124443 60 184 3.0 8.0 0.00 0.00 0.00 75 1017.1
20260505123721 60 234 3.0 9.0 0.00 0.00 0.00 76 1017.1
20260505123220 59 201 3.0 9.0 0.00 0.00 0.00 76 1017.1
20260505122943 59 227 3.0 8.0 0.00 0.00 0.00 76 1017.1
20260505122220 59 275 4.0 8.0 0.00 0.00 0.00 76 1017.1
20260505121932 58 207 4.0 8.0 0.00 0.00 0.00 77 1016.9
20260505121216 58 257 3.0 8.0 0.00 0.00 0.00 78 1016.9
20260505120716 57 187 3.0 6.0 0.00 0.00 0.00 78 1016.9
20260505120445 57 198 2.0 6.0 0.00 0.00 0.00 78 1016.9
20260505115716 56 194 2.0 6.0 0.00 0.00 0.00 78 1016.8
20260505115216 56 298 2.0 7.0 0.00 0.00 0.00 79 1016.8
20260505114717 56 221 2.0 7.0 0.00 0.00 0.00 79 1016.7
20260505114216 55 195 2.0 5.0 0.00 0.00 0.00 79 1016.7
20260505113716 55 197 2.0 4.0 0.00 0.00 0.00 80 1016.7
20260505113217 55 206 1.0 4.0 0.00 0.00 0.00 80 1016.8
20260505112716 55 195 2.0 6.0 0.00 0.00 0.00 80 1016.9
20260505112216 55 202 2.0 6.0 0.00 0.00 0.00 80 1016.9
20260505111716 55 198 2.0 6.0 0.00 0.00 0.00 80 1016.8
20260505111216 54 212 2.0 6.0 0.00 0.00 0.00 80 1016.9
20260505110715 54 217 2.0 4.0 0.00 0.00 0.00 80 1016.9
20260505110216 54 200 2.0 4.0 0.00 0.00 0.00 80 1016.8
20260505101716 55 222 2.0 4.0 0.00 0.00 0.00 78 1016.5
20260505101216 55 208 2.0 4.0 0.00 0.00 0.00 78 1016.5
20260505100715 55 215 2.0 6.0 0.00 0.00 0.00 78 1016.5
20260505100216 55 227 2.0 6.0 0.00 0.00 0.00 78 1016.5
20260505095716 55 219 2.0 4.0 0.00 0.00 0.00 77 1016.5
20260505095216 55 199 2.0 4.0 0.00 0.00 0.00 77 1016.5
20260505094716 55 209 2.0 4.0 0.00 0.00 0.00 76 1016.5
20260505094217 55 217 2.0 4.0 0.00 0.00 0.00 76 1016.5
20260505093716 55 263 2.0 5.0 0.00 0.00 0.00 76 1016.5
20260505093216 55 219 2.0 5.0 0.00 0.00 0.00 76 1016.5
20260505092717 55 261 2.0 5.0 0.00 0.00 0.00 76 1016.5
20260505092217 55 245 2.0 6.0 0.00 0.00 0.00 76 1016.5
20260505091717 55 213 2.0 6.0 0.00 0.00 0.00 77 1016.5
20260505091435 55 243 2.0 5.0 0.00 0.00 0.00 77 1016.5
20260505090716 54 223 2.0 5.0 0.00 0.00 0.00 77 1016.3
20260505090216 54 211 2.0 5.0 0.00 0.00 0.00 78 1016.3
20260505085716 53 207 1.0 4.0 0.00 0.00 0.00 78 1016.4
20260505085217 53 217 1.0 3.0 0.00 0.00 0.00 78 1016.5
20260505084716 53 239 1.0 3.0 0.00 0.00 0.00 78 1016.4
20260505084216 53 195 1.0 2.0 0.00 0.00 0.00 78 1016.3
20260505083716 53 194 1.0 2.0 0.00 0.00 0.00 78 1016.3
20260505083215 53 193 1.0 2.0 0.00 0.00 0.00 78 1016.2
20260505082939 53 194 1.0 2.0 0.00 0.00 0.00 78 1016.2
20260505082216 53 189 0.0 2.0 0.00 0.00 0.00 77 1016.2
20260505081941 53 186 0.0 2.0 0.00 0.00 0.00 77 1016.2
20260505081216 53 188 1.0 2.0 0.00 0.00 0.00 76 1016.2
20260505080711 53 190 1.0 2.0 0.00 0.00 0.00 76 1016.2
20260505080212 54 188 1.0 2.0 0.00 0.00 0.00 75 1016.1
20260505075712 54 185 1.0 2.0 0.00 0.00 0.00 75 1016.1
20260505075211 54 188 1.0 2.0 0.00 0.00 0.00 74 1016.0
20260505074712 55 193 1.0 2.0 0.00 0.00 0.00 74 1016.0
20260505074209 55 188 0.0 2.0 0.00 0.00 0.00 73 1016.0
20260505073710 55 188 0.0 2.0 0.00 0.00 0.00 72 1015.9
20260505073208 56 190 1.0 2.0 0.00 0.00 0.00 71 1015.9
20260505072707 56 184 1.0 2.0 0.00 0.00 0.00 70 1015.9
20260505072207 57 184 1.0 2.0 0.00 0.00 0.00 69 1015.8
20260505071922 58 189 1.0 2.0 0.00 0.00 0.00 68 1015.9
20260505071158 58 187 1.0 2.0 0.00 0.00 0.00 67 1015.9
20260505070656 59 182 1.0 3.0 0.00 0.00 0.00 65 1015.8
20260505070156 59 192 1.0 4.0 0.00 0.00 0.00 64 1015.8
20260505065156 59 190 1.0 4.0 0.00 0.00 0.00 64 1015.8
20260505064918 60 182 2.0 6.0 0.00 0.00 0.00 63 1015.9
20260505064154 60 175 2.0 7.0 0.00 0.00 0.00 63 1015.8
20260505063653 59 182 2.0 7.0 0.00 0.00 0.00 64 1015.7
20260505063152 58 278 1.0 7.0 0.00 0.00 0.00 66 1015.7
20260505062650 58 190 1.0 4.0 0.00 0.00 0.00 67 1015.7
20260505062149 57 247 1.0 3.0 0.00 0.00 0.00 68 1015.7
20260505061647 56 187 1.0 5.0 0.00 0.00 0.00 70 1015.8
20260505061148 55 192 1.0 5.0 0.00 0.00 0.00 72 1015.7
20260505060919 54 188 0.0 3.0 0.00 0.00 0.00 75 1015.7
20260505060147 54 181 0.0 1.0 0.00 0.00 0.00 77 1015.9
20260505055907 53 182 0.0 1.0 0.00 0.00 0.00 77 1015.9
20260505055148 53 184 0.0 1.0 0.00 0.00 0.00 78 1015.8
20260505054648 53 190 0.0 0.0 0.00 0.00 0.00 79 1015.8
20260505054148 53 190 0.0 0.0 0.00 0.00 0.00 79 1015.9
20260505053648 53 187 0.0 0.0 0.00 0.00 0.00 78 1016.0
20260505053143 53 185 0.0 0.0 0.00 0.00 0.00 78 1016.0
20260505052641 53 185 0.0 0.0 0.00 0.00 0.00 77 1016.0
20260505052141 53 185 0.0 0.0 0.00 0.00 0.00 77 1016.1
20260505051638 53 185 0.0 0.0 0.00 0.00 0.00 77 1016.2
20260505051137 54 184 0.0 0.0 0.00 0.00 0.00 76 1016.2
20260505050637 54 184 0.0 1.0 0.00 0.00 0.00 76 1016.2
20260505050137 54 184 0.0 1.0 0.00 0.00 0.00 76 1016.1
20260505041132 56 190 0.0 0.0 0.00 0.00 0.00 74 1016.3
20260505040632 56 190 0.0 0.0 0.00 0.00 0.00 73 1016.3
20260505040132 56 190 0.0 0.0 0.00 0.00 0.00 73 1016.3
20260505035627 56 190 0.0 0.0 0.00 0.00 0.00 73 1016.3
20260505035127 56 190 0.0 0.0 0.00 0.00 0.00 73 1016.4
20260505034627 56 190 0.0 0.0 0.00 0.00 0.00 73 1016.4
20260505034351 56 190 0.0 0.0 0.00 0.00 0.00 72 1016.4
20260505034120 57 190 0.0 0.0 0.00 0.00 0.00 72 1016.4
20260505033127 57 190 0.0 0.0 0.00 0.00 0.00 72 1016.5
20260505032624 57 189 0.0 0.0 0.00 0.00 0.00 71 1016.5
20260505032124 57 188 0.0 0.0 0.00 0.00 0.00 71 1016.5
20260505031625 58 188 0.0 0.0 0.00 0.00 0.00 71 1016.5
20260505031121 58 189 0.0 0.0 0.00 0.00 0.00 71 1016.3
20260505030621 58 186 0.0 0.0 0.00 0.00 0.00 70 1016.4
20260505030344 58 187 0.0 0.0 0.00 0.00 0.00 70 1016.4
20260505025836 58 188 0.0 0.0 0.00 0.00 0.00 69 1016.5
20260505025341 58 188 0.0 0.0 0.00 0.00 0.00 69 1016.5
20260505024617 58 188 0.0 1.0 0.00 0.00 0.00 69 1016.6
20260505024117 58 189 0.0 1.0 0.00 0.00 0.00 68 1016.3
20260505023615 59 190 0.0 1.0 0.00 0.00 0.00 67 1016.3
20260505023114 59 185 0.0 1.0 0.00 0.00 0.00 67 1016.3
20260505022613 59 190 0.0 1.0 0.00 0.00 0.00 67 1016.2
20260505022113 60 188 0.0 1.0 0.00 0.00 0.00 66 1016.2
20260505021608 60 188 0.0 2.0 0.00 0.00 0.00 66 1016.2
20260505021107 60 188 0.0 2.0 0.00 0.00 0.00 65 1016.0
20260505020828 60 189 0.0 2.0 0.00 0.00 0.00 66 1016.0
20260505020105 60 196 0.0 2.0 0.00 0.00 0.00 65 1015.9
20260505015824 60 186 0.0 0.0 0.00 0.00 0.00 65 1015.9
20260505015103 61 184 0.0 0.0 0.00 0.00 0.00 64 1015.9
20260505014603 61 184 0.0 0.0 0.00 0.00 0.00 63 1015.9
20260505014102 61 184 0.0 0.0 0.00 0.00 0.00 62 1015.8
20260505013600 62 184 0.0 0.0 0.00 0.00 0.00 62 1015.8
20260505013101 62 184 0.0 0.0 0.00 0.00 0.00 62 1015.7
20260505012600 63 184 0.0 0.0 0.00 0.00 0.00 60 1015.7
20260505012056 63 184 0.0 0.0 0.00 0.00 0.00 59 1015.7
20260505011814 63 184 0.0 0.0 0.00 0.00 0.00 59 1015.5
20260505011051 64 184 0.0 0.0 0.00 0.00 0.00 57 1015.5
20260505010549 65 184 0.0 1.0 0.00 0.00 0.00 56 1015.4
20260505010049 65 184 0.0 1.0 0.00 0.00 0.00 55 1015.4
20260505005549 66 184 0.0 1.0 0.00 0.00 0.00 54 1015.4
20260505005047 66 188 0.0 1.0 0.00 0.00 0.00 53 1015.4
20260505004547 67 182 0.0 1.0 0.00 0.00 0.00 52 1015.4
20260505004047 68 181 0.0 1.0 0.00 0.00 0.00 51 1015.2
20260505003548 68 183 0.0 1.0 0.00 0.00 0.00 48 1015.2
20260505003045 69 187 1.0 2.0 0.00 0.00 0.00 47 1015.3
20260505002545 69 192 1.0 2.0 0.00 0.00 0.00 46 1015.1
20260505002045 70 190 0.0 3.0 0.00 0.00 0.00 46 1015.1
20260505001545 71 188 1.0 3.0 0.00 0.00 0.00 45 1015.1
20260505001304 71 198 1.0 6.0 0.00 0.00 0.00 44 1015.2
20260505001031 71 239 2.0 6.0 0.00 0.00 0.00 43 1015.1
20260505000043 72 197 2.0 5.0 0.00 0.00 0.00 42 1015.1
20260504235543 72 260 2.0 7.0 0.00 0.00 0.00 42 1015.1
20260504235043 73 209 2.0 7.0 0.00 0.00 0.00 41 1015.0
20260504234542 73 213 2.0 6.0 0.00 0.00 0.00 39 1015.0
20260504234041 73 225 2.0 6.0 0.00 0.00 0.00 38 1014.8
20260504233541 74 204 4.0 11.0 0.00 0.00 0.00 37 1014.8
20260504233042 74 219 4.0 11.0 0.00 0.00 0.00 37 1014.7
20260504232541 75 200 3.0 10.0 0.00 0.00 0.00 36 1014.7
20260504232041 75 256 3.0 10.0 0.00 0.00 0.00 34 1014.7
20260504231542 76 265 2.0 7.0 0.00 0.00 0.00 34 1014.6
20260504231041 76 217 2.0 7.0 0.00 0.00 0.00 33 1014.7
20260504230802 76 211 2.0 7.0 0.00 0.00 0.00 32 1014.6
20260504230041 76 204 3.0 9.0 0.00 0.00 0.00 32 1014.7
20260504225540 76 204 3.0 9.0 0.00 0.00 0.00 31 1014.6
20260504225041 76 260 3.0 14.0 0.00 0.00 0.00 31 1014.7
20260504224541 76 264 4.0 14.0 0.00 0.00 0.00 32 1014.6
20260504224041 76 196 3.0 9.0 0.00 0.00 0.00 31 1014.6
20260504223541 77 208 3.0 8.0 0.00 0.00 0.00 31 1014.7
20260504223303 77 212 4.0 8.0 0.00 0.00 0.00 31 1014.7
20260504222803 77 252 4.0 8.0 0.00 0.00 0.00 31 1014.8
20260504222041 77 213 4.0 8.0 0.00 0.00 0.00 32 1014.7
20260504221542 78 219 3.0 9.0 0.00 0.00 0.00 32 1014.8
20260504221041 78 296 3.0 9.0 0.00 0.00 0.00 33 1014.7
20260504220541 78 192 4.0 11.0 0.00 0.00 0.00 33 1014.7
20260504220041 78 300 4.0 11.0 0.00 0.00 0.00 34 1014.6
20260504215758 78 144 4.0 13.0 0.00 0.00 0.00 33 1014.8
20260504215041 78 226 4.0 13.0 0.00 0.00 0.00 33 1014.7
20260504214541 79 214 4.0 12.0 0.00 0.00 0.00 32 1014.7
20260504214041 78 220 4.0 12.0 0.00 0.00 0.00 32 1014.6
20260504213541 79 277 3.0 7.0 0.00 0.00 0.00 30 1014.6
20260504213037 79 250 3.0 7.0 0.00 0.00 0.00 32 1014.6
20260504212537 79 291 3.0 9.0 0.00 0.00 0.00 31 1014.6
20260504212037 79 210 3.0 9.0 0.00 0.00 0.00 33 1014.6
20260504212014 79 162 3.0 10.0 0.00 0.00 0.00 32 1014.7
20260504211636 79 219 3.0 10.0 0.00 0.00 0.00 31 1014.6
20260504210537 79 163 2.0 8.0 0.00 0.00 0.00 33 1014.6
20260504210303 79 232 3.0 12.0 0.00 0.00 0.00 32 1014.7
20260504205534 80 252 4.0 12.0 0.00 0.00 0.00 31 1014.8
20260504205036 80 215 3.0 10.0 0.00 0.00 0.00 32 1014.9
20260504204533 80 279 3.0 7.0 0.00 0.00 0.00 30 1014.9
20260504204033 80 262 4.0 11.0 0.00 0.00 0.00 31 1014.9
20260504203533 80 228 3.0 11.0 0.00 0.00 0.00 33 1014.9
20260504203033 80 201 2.0 7.0 0.00 0.00 0.00 30 1014.9
20260504202756 80 271 3.0 8.0 0.00 0.00 0.00 30 1014.9
20260504202034 80 234 3.0 8.0 0.00 0.00 0.00 29 1015.0
20260504201533 80 203 3.0 9.0 0.00 0.00 0.00 29 1015.0
20260504201033 79 271 3.0 9.0 0.00 0.00 0.00 33 1015.1
20260504200533 79 245 3.0 9.0 0.00 0.00 0.00 30 1015.1
20260504200032 79 161 2.0 7.0 0.00 0.00 0.00 29 1015.2
20260504195533 79 55 2.0 6.0 0.00 0.00 0.00 30 1015.3
20260504195033 79 232 3.0 7.0 0.00 0.00 0.00 30 1015.4
20260504194757 79 279 3.0 8.0 0.00 0.00 0.00 32 1015.3
20260504194033 78 273 4.0 10.0 0.00 0.00 0.00 30 1015.4
20260504193533 78 198 4.0 10.0 0.00 0.00 0.00 31 1015.5
20260504193511 78 283 3.0 9.0 0.00 0.00 0.00 30 1015.5
20260504192533 79 234 3.0 9.0 0.00 0.00 0.00 31 1015.5
20260504192033 79 152 2.0 7.0 0.00 0.00 0.00 33 1015.7
20260504191533 79 184 2.0 7.0 0.00 0.00 0.00 32 1015.8
20260504191031 78 116 2.0 6.0 0.00 0.00 0.00 33 1015.7
20260504190529 78 128 3.0 7.0 0.00 0.00 0.00 31 1015.8
20260504190029 77 252 3.0 7.0 0.00 0.00 0.00 29 1016.1
20260504185527 78 256 3.0 7.0 0.00 0.00 0.00 30 1016.2
20260504185246 78 255 3.0 7.0 0.00 0.00 0.00 31 1016.3
20260504184525 78 205 3.0 8.0 0.00 0.00 0.00 31 1016.2
20260504184024 78 224 3.0 8.0 0.00 0.00 0.00 31 1016.2
20260504183523 78 281 3.0 8.0 0.00 0.00 0.00 34 1016.3
20260504183021 77 221 3.0 8.0 0.00 0.00 0.00 34 1016.3
20260504182520 77 201 2.0 7.0 0.00 0.00 0.00 32 1016.4
20260504182018 77 246 2.0 6.0 0.00 0.00 0.00 30 1016.4
20260504181519 77 231 2.0 7.0 0.00 0.00 0.00 30 1016.4
20260504181019 77 131 2.0 7.0 0.00 0.00 0.00 30 1016.5
20260504180518 77 99 2.0 5.0 0.00 0.00 0.00 31 1016.5
20260504180019 76 245 2.0 8.0 0.00 0.00 0.00 32 1016.5
20260504175518 76 253 3.0 8.0 0.00 0.00 0.00 37 1016.7
20260504175014 76 218 3.0 8.0 0.00 0.00 0.00 33 1016.7
20260504174513 76 144 3.0 7.0 0.00 0.00 0.00 36 1016.7
20260504174010 76 255 3.0 7.0 0.00 0.00 0.00 32 1016.7
20260504173509 76 225 2.0 7.0 0.00 0.00 0.00 33 1016.8